OBJECT A, 60235

Orbit data source: Space-Track

You're viewing an uncataloged RSO

Recently launched and/or uncataloged RSOs may have evolving metadata. Metadata may include the following, but is not limited to: Owner, Manufacturer, Bus, Motor, and Mission.

OBJECT A, 60235 is a satellite in LEO that was launched on Tue, 09 Jul 2024 UTC via an ARIANE 62 launch vehicle from the French Guiana (FRGUI). Unknown objects in Earth's orbit typically refer to objects detected orbiting the Earth but have not yet been identified or cataloged. These objects could be anything from previously untracked satellites, spent rocket stages, debris from satellite collisions, or even natural meteoroids temporarily captured by Earth's gravity.

Loading next visibility...
Identifier
60235, 2024-128A
Orbit
LEO
Country
Flag of TBDTBD
Related business
None
Manufacturer
Unknown
Mission
Amateur Science
Bus & Motor
Unknown
Mass
Unknown
Launch date (UTC)
2024-07-09 (2 years ago)
Launch vehicle
ARIANE 62
Launch site
French Guiana (FRGUI)
Object type
Unknown
Shape & HBR
Box, 0.2 m
Radar Cross Section
0.035 m², Medium (>0.1 m² and < 1m²)

Expand to show TLE details & history
Last TLE update: 8 hours ago

TLE from 8 hours ago
0 OBJECT A
1 60235U 24128A   26264.94921223  .00000986  00000-0  91047-4 0  9993
2 60235  61.9930 254.5829 0036098 161.4961 198.7451 15.01474291120535
Epoch: 2026-09-21T22:46Z
TLE epoch observation values (Epoch: 2026-09-21T22:46:51.936Z)
Latitude
-0.0001°
Longitude
-87.95526°
Altitude
587.855 km
Speed
7.554 km/s
True Right ascension
16h 58m 19s
True Declination
0° 00' 00"
Sunlit
Object was in daylight at epoch
Visualization orbit readout
Latitude
Unknown
Longitude
Unknown
Altitude
Unknown
Speed
Unknown
Apparent Right ascension
Unknown
Apparent Declination
Unknown
Sunlit
N/A
Visualization observer readout
Local Sidereal Time
00:05:12
Azimuth
Unknown
Elevation
Unknown
Doppler factor
Unknown
Orbital elements
Apogee altitude
586.33 km
Perigee altitude
536.23 km
Semi-major axis
6,939.417 km
Eccentricity
0.00361
Inclination
61.993°
RAAN
254.5829°
Arg. of periapsis
161.4961°
True anomaly
198.61274°
Mean anomaly
198.7451°
Eccentric anomaly
198.67886°
Mean motion
3.75456 °/min
Orbital period
95.88 mins
BSTAR
0.000091047
Loading maneuver chart data...
Computing Atmospheric mass density...
Loading historical data...
Loading historical data...
Loading historical data...
Loading historical data...
Loading historical data...
Loading historical data...
Loading historical data...

Documentation

Showing up to 5 results
|